Regional Weather Roundup
Issued by NWS

Home | Current Version | Previous Version | Text Only | Print | Product List | Glossary Off
Versions: 1 2 3 4 5 6 7 8 9 10 11 12 13 14 15 16 17 18 19 20 21 22 23 24 25 26 27 28 29 30 31 32 33 34 35 36 37 38 39 40 41 42 43 44 45 46 47 48 49 50

000
ASUS43 KMPX 071010
RWRMN
WEATHER ROUNDUP FOR MINNESOTA
NATIONAL WEATHER SERVICE TWIN CITIES/CHANHASSEN MN
500 AM CDT TUE JUL 07 2015


NOTE: "FAIR" INDICATES FEW OR NO CLOUDS BELOW 12,000 FEET WITH NO
SIGNIFICANT WEATHER AND/OR OBSTRUCTIONS TO VISIBILITY. N/A MEANS
CURRENT SKY AND/OR WEATHER CONDITIONS ARE NOT AVAILABLE.

MNZ060>063-068>070-071100-
   Twin Cities Metro

CITY           SKY/WX    TMP DP  RH WIND       PRES   REMARKS
TWIN CITIES    CLEAR     55  47  74 N10       30.10R
ST PAUL        CLEAR     53  48  83 NW7       30.10R
CRYSTAL        CLEAR     54  46  74 N7        30.10R
BLAINE         CLEAR     54  48  82 NW8       30.10R
LAKEVILLE      CLEAR     50  48  93 NW7       30.10R
EDEN PRAIRIE   CLEAR     54  47  77 N9        30.10R
SOUTH ST PAUL  CLEAR     54  47  78 N8        30.10R
LAKE ELMO      FAIR      52  48  87 NW5       30.10R
$$
MNZ001>005-007-008-013>017-022>024-027-028-071100-
   Northwest Minnesota

CITY           SKY/WX    TMP DP  RH WIND       PRES   REMARKS
BEMIDJI        CLEAR     41  40  97 NW7       30.15S
HALLOCK        CLEAR     41  39  93 CALM      30.16S
ROSEAU         CLEAR     48  43  81 W6        30.15R
WARROAD        CLEAR     46  43  87 W6        30.15R
THIEF RVR FALL CLEAR     46  45  93 CALM      30.17R
CROOKSTON      CLEAR     46  45  93 CALM      30.18S
FOSSTON        CLEAR     37  37 100 CALM      30.17S
DETROIT LAKES  CLEAR     46  45  93 NW3       30.18S
MOORHEAD       CLEAR     46  45  93 CALM      30.19S
PARK RAPIDS    CLEAR     47  44  90 NW5       30.16R
MAHNOMEN       FAIR      42  41  97 CALM      30.17S
$$
MNZ006-009>011-018-025>026-071100-
   North Central Minnesota

CITY           SKY/WX    TMP DP  RH WIND       PRES   REMARKS
BAUDETTE       CLEAR     45  42  89 W7        30.13R
FLAG ISLAND    CLEAR     52  46  82 NW9       30.12R
INTL FALLS     CLEAR     38  37  97 CALM      30.11R
WASKISH        CLEAR     52  46  82 NW8       30.14S
BIG FORK       CLEAR     39  37  93 CALM      30.13R FOG
LONGVILLE      CLEAR     46  45  93 CALM      30.14R
GRAND RAPIDS   CLEAR     45  43  93 CALM      30.13R
CRANE LAKE     CLEAR     43  41  93 CALM      30.12R
COOK           CLEAR     45  43  93 W3        30.12R
WALKER         FAIR      45  44  97 W3        30.15R
$$
MNZ012-019>021-037-071100-
   Northeast Minnesota

CITY           SKY/WX    TMP DP  RH WIND       PRES   REMARKS
DULUTH         MOCLDY    53  43  68 N6        30.10R
ELY            CLOUDY    50  45  81 NW5       30.09R
HIBBING        CLEAR     40  38  93 CALM      30.12R
DULUTH HARBOR    N/A     57  48  72 NW14      30.10R
TWO HARBORS    CLOUDY    55  46  71 CALM      30.08R
SILVER BAY     CLOUDY    52  46  82 CALM      30.07R
GRAND MARAIS     N/A     53  48  83 NW3       30.05R
G MARAIS ARPRT MOCLDY    48  43  81 N3        30.06R
$$
MNZ029>031-032-039>041-046>048-054>057-064-071100-
   West Central Minnesota

CITY           SKY/WX    TMP DP  RH WIND       PRES   REMARKS
FERGUS FALLS   CLEAR     48  46  93 N3        30.18S
WHEATON        CLEAR     46  45  93 CALM      30.20S
MORRIS         CLEAR     46  46 100 NW5       30.17R
ALEXANDRIA     CLEAR     50  47  89 N6        30.18R
ELBOW LAKE     FAIR      49  47  93 N5        30.17S
WADENA         CLEAR     45  43  93 CALM      30.16R
GLENWOOD       CLEAR     48  46  93 NW5       30.17R
APPLETON       CLEAR     48  45  87 NW5       30.17R
BENSON         CLEAR     46  45  93 N7        30.17R
ORTONVILLE     CLEAR     50  46  87 NW5       30.18S
MADISON        CLEAR     52  46  82 NW9       30.17S
WILLMAR        FAIR      52  48  87 N7        30.17R
$$
MNZ033>034-036-042>043-049>051-058-059-071100-
   Central Minnesota

CITY           SKY/WX    TMP DP  RH WIND       PRES   REMARKS
ST CLOUD       CLEAR     49  46  90 NW3       30.14R
SAUK CENTRE    FAIR      48  45  88 NW3       30.17R
PAYNESVILLE    CLEAR     46  45  95 W5        30.16R
AITKIN         CLEAR     43  37  81 CALM      30.12S
PINE RIVER     CLEAR     46  45  93 CALM      30.18R
BRAINERD       CLEAR     50  46  86 NW3       30.15R
STAPLES        CLEAR     46  45  93 NW3       30.16R
LONG PRAIRIE   FAIR      46  43  87 NW3       30.17R
LITTLE FALLS   CLEAR     48  45  87 CALM      30.15R
LITCHFIELD     CLEAR     52  48  87 NW8       30.14R
BUFFALO        CLEAR     52  47  83 NW5       30.13R
MAPLE LAKE     CLEAR     51  49  90 NW7       30.14R
$$
MNZ037-044-045-052-053-071100-
   East Central Minnesota

CITY           SKY/WX    TMP DP  RH WIND       PRES   REMARKS
PRINCETON      CLEAR     48  46  93 CALM      30.13R
MORA           CLEAR     48  43  81 CALM      30.14R
CAMBRIDGE      CLEAR     52  41  66 NW5       30.10R
MOOSE LAKE     PTCLDY    48  43  81 CALM      30.11R
HINCKLEY       CLOUDY    50  45  81 NW7       30.11R
CLOQUET        CLOUDY    50  43  76 NW6       30.11R
MCGREGOR       CLEAR     46  43  87 CALM      30.14R
$$
MNZ071>073-080-081-089-090-097-098-071100-
   Southwest Minnesota

CITY           SKY/WX    TMP DP  RH WIND       PRES   REMARKS
MONTEVIDEO       N/A    N/A N/A N/A MISG        N/A
GRANITE FALLS  CLEAR     50  47  89 NW6       30.18R
CANBY          CLEAR     50  47  89 NW7       30.18S
MARSHALL       CLEAR     48  43  81 NW8       30.15S
REDWOOD FALLS  CLEAR     51  47  86 N7        30.14R
OLIVIA         CLEAR     46  43  87 NW5       30.14R
PIPESTONE      CLEAR     52  46  82 N3        30.17R
WINDOM         CLEAR     50  46  87 NW7       30.15R
WORTHINGTON    CLEAR     48  43  81 NW7       30.16R
JACKSON        CLEAR     48  46  93 NW7       30.14R
TRACY          CLEAR     50  48  93 NW6       30.16R
SLAYTON        CLEAR     49  48  98 CALM      30.17R
$$
MNZ065>067-074>077-082>085-091>093-071100-
   South Central Minnesota

CITY           SKY/WX    TMP DP  RH WIND       PRES   REMARKS
MANKATO        CLEAR     52  46  82 N9        30.10S
NEW ULM        CLEAR     50  48  93 NW8       30.13R
ST JAMES         N/A     50  48  93 NW5       30.14R
FAIRMONT       CLEAR     52  43  71 NW9       30.12R
GLENCOE        CLEAR     52  49  91 NW6       30.12R
FARIBAULT      CLEAR     52  50  93 NW7       30.09R
OWATONNA       CLEAR     50  46  87 NW3       30.09R
WASECA         CLEAR     52  48  87 N7        30.11R
ALBERT LEA     CLEAR     54  48  82 N7        30.08R
$$
MNZ078>079-086>088-094>096-071100-
   Southeast Minnesota

CITY           SKY/WX    TMP DP  RH WIND       PRES   REMARKS
ROCHESTER      CLEAR     52  48  86 N12       30.07R
RED WING       CLEAR     54  48  82 CALM      30.07R
STANTON        CLEAR     52  48  87 NW5       30.08R
DODGE CENTER   CLEAR     52  48  87 N8        30.08R
WINONA         CLEAR     55  50  82 CALM      30.05R
AUSTIN         CLEAR     54  48  82 N7        30.07R
PRESTON        CLOUDY    52  47  85 N8        30.06R
$$
ABBREVIATIONS USED IN REMARKS
   TC - TEMPERATURES IN CELSIUS
  WCI - WIND CHILL INDEX
   HX - HEAT INDEX
  VSB - VISIBILITY
$$


USA.gov is the U.S. government's official web portal to all federal, state and local government web resources and services.